Simultaneous Nadir Overpasses (SNOs) Predictions

Prediction of SNOs between GOES-16 and NOAA-20 Satellite Orbit:

Table of predicted SNOs for the next 14.0 days since TLE Epoch: 1/23/2022
Index Date Time (GOES-16) GOES-16 Lat,Lon NOAA-20 Lat,Lon Distance(km) Time Diff (sec)
1 01/23/2022 06:31:29 -0.06, -75.19 0.20, -76.31 127.80 80
2 01/24/2022 06:10:06 -0.05, -75.19 -0.80, -71.78 388.78 80
3 01/25/2022 18:32:05 0.06, -75.21 -0.35, -77.10 214.35 80
4 01/26/2022 18:16:02 0.05, -75.22 0.65, -72.57 302.54 80
5 01/28/2022 06:37:51 -0.05, -75.22 0.55, -77.84 298.17 80
6 01/29/2022 06:16:28 -0.04, -75.23 -0.45, -73.31 218.63 80
7 01/30/2022 18:38:27 0.04, -75.25 -0.69, -78.63 384.40 80
8 01/31/2022 18:22:23 0.04, -75.26 0.31, -74.10 132.87 80
9 02/02/2022 06:44:13 -0.04, -75.28 0.89, -79.37 466.47 80
10 02/03/2022 06:22:49 -0.04, -75.29 -0.11, -74.84 51.27 80
11 02/05/2022 18:26:05 0.03, -75.35 -0.02, -75.63 31.86 80
